Flag for Germany Weather past 2 weeks in Minden, North Rhine-Westphalia, Germany

Now
39 °F

Chilly.


Feels Like: 29 °F
Forecast: 40 / 46 °F
Wind: 21 mph from South

Location: Bueckeburg

Current Time: Mar 1, 2015 at 9:01:48 AM

Latest Report: Mar 1, 2015 at 8:20 AM


Visibility: 3 mi

Pressure: 29.50 "Hg

Humidity: 93%

Dew point: 37 °F

Location of MindenLocation

Historic Weather in Minden — Graph

°F

Minden temperature yesterday

Maximum temperature yesterday: 46 °F (at 4:20 PM)
Minimum temperature yesterday: 30 °F (at 4:20 AM)
Average temperature yesterday: 38 °F

Past Weeks' High & Low Weather Summary

 TemperatureHumidityPressure
High52 °F (Feb 14, 3:20 PM)100% (Feb 15, 3:20 AM)30.74 "Hg (Feb 15, 3:20 AM)
Low27 °F (Feb 16, 7:20 AM)46% (Feb 28, 3:20 PM)29.30 "Hg (Feb 21, 6:20 AM)
Average39 °F80%29.96 "Hg
* Reported Feb 14 7:20 AM — Mar 1 7:20 AM, Minden, Weather by CustomWeather, © 2015

Note: Actual official high and low records may vary slightly from our data, if they occured in-between our weather recording intervals... More about our weather records

Advertising

Minden weather history for previous 24 hours

 ConditionsComfort  
Time TempWeatherWind HumidityBarometerVisibility
7:20 AM
Sun, Mar 1
39 °FChilly.18 mph87%29.50 "Hg1 mi
6:20 AM39 °FChilly.18 mph81%29.53 "Hg6 mi
5:20 AM39 °FChilly.18 mph75%29.56 "Hg4 mi
4:20 AM41 °FQuite cool.20 mph61%29.59 "Hg5 mi
3:20 AM41 °FQuite cool.17 mph61%29.62 "HgN/A
2:20 AM41 °FQuite cool.15 mph61%29.68 "HgN/A
1:20 AMN/A16 mphN/AN/AN/A
12:20 AM39 °FChilly.17 mph61%29.77 "HgN/A
11:20 PM
Sat, Feb 28
39 °FChilly.14 mph61%29.80 "HgN/A
10:20 PM39 °FChilly.15 mph61%29.83 "HgN/A
9:20 PM39 °FChilly.14 mph65%29.89 "HgN/A
8:20 PM41 °FQuite cool.16 mph61%29.89 "HgN/A
7:20 PM41 °FQuite cool.12 mph66%29.92 "HgN/A
6:20 PM43 °FQuite cool.13 mph49%29.95 "HgN/A
5:20 PM45 °FQuite cool.10 mph46%29.95 "HgN/A
4:20 PM46 °FCool.12 mph46%29.98 "HgN/A
3:20 PM45 °FQuite cool.14 mph46%30.01 "HgN/A
2:20 PM45 °FQuite cool.10 mph49%30.04 "Hg6 mi
1:20 PM43 °FQuite cool.12 mph61%30.07 "Hg6 mi
12:20 PM41 °FQuite cool.10 mph66%30.07 "Hg6 mi
11:20 AM39 °FChilly.10 mph75%30.09 "Hg3 mi
10:20 AM36 °FChilly.7 mph87%30.12 "Hg3 mi
9:20 AM34 °FChilly.7 mph93%30.12 "Hg3 mi
Weather by CustomWeather, © 2015

See weather overviewHow to use our weather pages